Regional Weather Roundup
Issued by NWS State College, PA

Home | Current Version | Previous Version | Graphics & Text | Print | Product List | Glossary Off
Versions: 1 2 3 4 5 6 7 8 9 10 11 12 13 14 15 16 17 18 19 20 21 22 23 24 25 26 27 28 29 30 31 32 33 34 35 36 37 38 39 40 41 42 43 44 45 46 47 48 49 50

000
ASUS41 KCTP 260510
RWRCTP

REGIONAL WEATHER ROUNDUP
NATIONAL WEATHER SERVICE STATE COLLEGE PA
100 AM EDT MON JUN 26 2017

Note: "fair" indicates few or no clouds below 12,000 feet with no
significant weather and/or obstructions to visibility.

* = STATION THAT DOES NOT REPORT PRECIPITATION /E.G. RAIN...SNOW...ETC/
    THUNDER OR FOG.

PAZ002>004-007>009-013>016-020>023-029>032-260600-
WESTERN PENNSYLVANIA

CITY           SKY/WX    TMP DP  RH WIND       PRES   REMARKS
ERIE           CLOUDY    60  51  72 S6        30.04S
MEADVILLE      LGT RAIN  57  51  80 SW8       30.07R
FRANKLIN*      CLOUDY    54  43  66 SW5       30.07F
NEW CASTLE     FAIR      58  47  66 VRB6      30.08S
BEAVER COUNTY  NOT AVBL
BUTLER*        CLEAR     54  45  71 SW3       30.09S
PITTSBURGH INT CLEAR     59  46  62 SW6       30.08F
PITTSBURGH     CLEAR     61  42  49 W8        30.08F
INDIANA*       CLEAR     55  54  94 CALM      30.11S
LATROBE        CLEAR     55  54  94 SW3       30.10F
WASHINGTON CO* CLEAR     50  46  87 CALM      30.12F
$$

PAZ004>006-010>012-017>019-024>028-033>037-041-042-045-046-049>053-260600-
CENTRAL PENNSYLVANIA

CITY           SKY/WX    TMP DP  RH WIND       PRES   REMARKS
BRADFORD       CLEAR     44  44 100 CALM      30.07S
DUBOIS         CLEAR     52  46  80 CALM      30.07S
CLEARFIELD     CLEAR     55  48  77 CALM      30.08S
JOHNSTOWN      MOCLDY    57  47  69 SW6       30.10S
ALTOONA        CLEAR     57  52  83 S3        30.10R
STATE COLLEGE  MOCLDY    58  51  76 S3        30.07S
WILLIAMSPORT   CLEAR     61  52  72 CALM      30.03S
SELINSGROVE    PTCLDY    61  56  83 CALM      30.05R
FT INDIANTOWN  PTCLDY    69  47  46 NW5       30.03R
CAPITAL CITY   PTCLDY    66  48  52 W9        30.03S
HARRISBURG     PTCLDY    68  50  52 NW7       30.02S
YORK           PTCLDY    64  51  62 W5        30.04S
$$

PAZ038>040-043-044-047-048-054-055-060>062-067>071-260600-
EASTERN PENNSYLVANIA

CITY           SKY/WX    TMP DP  RH WIND       PRES   REMARKS
SCRANTON       CLEAR     58  52  80 SE5       30.03S
MOUNT POCONO   CLEAR     53  50  89 W5        30.04F
ALLENTOWN      CLOUDY    65  52  62 NW3       30.02R
QUAKERTOWN*    PTCLDY    61  55  82 CALM      30.02S
READING        MOCLDY    68  51  54 W7        30.01R
LANCASTER      PTCLDY    68  50  52 CALM      30.03R
COATESVILLE    PTCLDY    66  48  52 W5        30.04S
POTTSTOWN      PTCLDY    63  51  65 CALM      30.03R
BLUE BELL      CLEAR     64  52  63 CALM      30.02R
DOYLESTOWN     CLEAR     66  53  63 CALM      30.00R
WILLOW GROVE   NOT AVBL
NORTH PHILA    CLEAR     73  50  44 W10       30.00S
PHILADELPHIA   PTCLDY    74  47  38 W9        30.00S
$$



USA.gov is the U.S. government's official web portal to all federal, state and local government web resources and services.